When you browse on this site, cookies collect data to enhance your experience and personalize the content and advertising you see.
Visit our Privacy Policy to learn more. By continuing to use the site, you agree to this use of cookies and data.
  • In Österreich
  • Länderverzeichnis
  • Für 7 Tage
  • Wassertemperatur
  • Satellitenkarten
  • Wetterkarte
  • News
  • Widgets
  • user-avatar
    Anmelden

    Stündliche Wetter Lisboa

    Heute, 22 April, Montag

    Zeit Temperatur Niederschläge Wind Luftdruck Luftfeuchtigkeit
    00:00 +14°C° 0 mm 3 m/S 751 mmHg 72%
    01:00 +15°C° 0 mm 2 m/S 751 mmHg 74%
    02:00 +14°C° 0 mm 2 m/S 750 mmHg 77%
    03:00 +14°C° 0 mm 2 m/S 750 mmHg 79%
    04:00 +14°C° 0 mm 2 m/S 750 mmHg 82%
    05:00 +14°C° 0 mm 2 m/S 750 mmHg 87%
    06:00 +14°C° 0 mm 3 m/S 750 mmHg 80%
    07:00 +17°C° 0 mm 3 m/S 750 mmHg 72%
    08:00 +19°C° 0 mm 3 m/S 749 mmHg 65%
    09:00 +20°C° 0 mm 4 m/S 749 mmHg 58%
    10:00 +21°C° 0 mm 4 m/S 749 mmHg 51%
    11:00 +22°C° 0 mm 5 m/S 749 mmHg 45%
    12:00 +21°C° 0 mm 5 m/S 748 mmHg 47%
    13:00 +21°C° 0 mm 5 m/S 748 mmHg 49%
    14:00 +21°C° 0 mm 6 m/S 747 mmHg 51%
    15:00 +20°C° 0 mm 6 m/S 747 mmHg 58%
    16:00 +19°C° 0 mm 6 m/S 746 mmHg 65%
    17:00 +17°C° 0 mm 6 m/S 746 mmHg 72%
    18:00 +15°C° 1.3 mm 7 m/S 746 mmHg 74%
    19:00 +13°C° 1.3 mm 8 m/S 746 mmHg 75%
    20:00 +12°C° 1.3 mm 8 m/S 747 mmHg 77%
    21:00 +12°C° 0.2 mm 8 m/S 747 mmHg 73%
    22:00 +11°C° 0.2 mm 8 m/S 747 mmHg 68%
    23:00 +10°C° 0.2 mm 7 m/S 747 mmHg 64%

    Morgen, 23 April, Dienstag

    Zeit Temperatur Niederschläge Wind Luftdruck Luftfeuchtigkeit
    00:00 +10°C° 0 mm 7 m/S 747 mmHg 64%
    01:00 +10°C° 0 mm 7 m/S 747 mmHg 64%
    02:00 +9°C° 0 mm 7 m/S 747 mmHg 64%
    03:00 +9°C° 0.1 mm 6 m/S 747 mmHg 64%
    04:00 +9°C° 0.1 mm 6 m/S 747 mmHg 65%
    05:00 +9°C° 0.1 mm 6 m/S 747 mmHg 66%
    06:00 +10°C° 0.2 mm 6 m/S 748 mmHg 62%
    07:00 +11°C° 0.2 mm 7 m/S 748 mmHg 58%
    08:00 +12°C° 0.2 mm 7 m/S 748 mmHg 54%
    09:00 +12°C° 0.3 mm 7 m/S 748 mmHg 52%
    10:00 +14°C° 0.3 mm 7 m/S 749 mmHg 50%
    11:00 +14°C° 0.3 mm 7 m/S 749 mmHg 49%
    12:00 +15°C° 0.3 mm 7 m/S 749 mmHg 49%
    13:00 +15°C° 0.3 mm 7 m/S 749 mmHg 49%
    14:00 +15°C° 0.3 mm 7 m/S 749 mmHg 49%
    15:00 +14°C° 0.2 mm 7 m/S 749 mmHg 53%
    16:00 +14°C° 0.2 mm 7 m/S 749 mmHg 56%
    17:00 +12°C° 0.2 mm 7 m/S 749 mmHg 59%
    18:00 +13°C° 0.1 mm 6 m/S 750 mmHg 61%
    19:00 +11°C° 0.1 mm 6 m/S 750 mmHg 63%
    20:00 +12°C° 0.1 mm 5 m/S 750 mmHg 65%
    21:00 +12°C° 0 mm 5 m/S 750 mmHg 67%
    22:00 +12°C° 0 mm 5 m/S 750 mmHg 70%
    23:00 +12°C° 0 mm 5 m/S 750 mmHg 72%

    übermorgen, 24 April, Mittwoch

    Zeit Temperatur Niederschläge Wind Luftdruck Luftfeuchtigkeit
    00:00 +12°C° 0 mm 5 m/S 750 mmHg 73%
    01:00 +11°C° 0 mm 6 m/S 749 mmHg 74%
    02:00 +11°C° 0 mm 6 m/S 749 mmHg 75%
    03:00 +12°C° 0 mm 7 m/S 749 mmHg 75%
    04:00 +12°C° 0 mm 8 m/S 748 mmHg 75%
    05:00 +13°C° 0 mm 9 m/S 748 mmHg 76%
    06:00 +13°C° 0.3 mm 9 m/S 748 mmHg 77%
    07:00 +14°C° 0.3 mm 10 m/S 748 mmHg 78%
    08:00 +14°C° 0.3 mm 11 m/S 749 mmHg 78%
    09:00 +14°C° 1.5 mm 10 m/S 749 mmHg 80%
    10:00 +14°C° 1.5 mm 10 m/S 749 mmHg 82%
    11:00 +14°C° 1.5 mm 10 m/S 749 mmHg 84%
    12:00 +16°C° 0.6 mm 10 m/S 749 mmHg 80%
    13:00 +16°C° 0.6 mm 10 m/S 750 mmHg 76%
    14:00 +17°C° 0.6 mm 10 m/S 750 mmHg 71%
    15:00 +16°C° 0.2 mm 9 m/S 750 mmHg 70%
    16:00 +16°C° 0.2 mm 8 m/S 750 mmHg 69%
    17:00 +15°C° 0.2 mm 7 m/S 750 mmHg 68%
    18:00 +15°C° 0 mm 7 m/S 751 mmHg 68%
    19:00 +14°C° 0 mm 6 m/S 752 mmHg 68%
    20:00 +14°C° 0 mm 6 m/S 753 mmHg 68%
    21:00 +14°C° 0.1 mm 6 m/S 753 mmHg 68%
    22:00 +14°C° 0.1 mm 5 m/S 754 mmHg 67%
    23:00 +13°C° 0.1 mm 5 m/S 754 mmHg 67%

    25 April, Donnerstag

    Zeit Temperatur Niederschläge Wind Luftdruck Luftfeuchtigkeit
    00:00 +13°C° 0.1 mm 6 m/S 754 mmHg 68%
    01:00 +13°C° 0.1 mm 6 m/S 755 mmHg 68%
    02:00 +13°C° 0.1 mm 6 m/S 755 mmHg 69%
    03:00 +11°C° 0 mm 6 m/S 755 mmHg 69%
    04:00 +11°C° 0 mm 6 m/S 755 mmHg 69%
    05:00 +11°C° 0 mm 6 m/S 756 mmHg 69%
    06:00 +13°C° 0.1 mm 6 m/S 756 mmHg 66%
    07:00 +14°C° 0.1 mm 6 m/S 757 mmHg 62%
    08:00 +14°C° 0.1 mm 6 m/S 758 mmHg 59%
    09:00 +15°C° 0.1 mm 6 m/S 759 mmHg 57%
    10:00 +15°C° 0.1 mm 7 m/S 759 mmHg 54%
    11:00 +16°C° 0.1 mm 7 m/S 760 mmHg 51%
    12:00 +16°C° 0 mm 7 m/S 760 mmHg 50%
    13:00 +16°C° 0 mm 7 m/S 760 mmHg 49%
    14:00 +17°C° 0 mm 7 m/S 760 mmHg 48%
    15:00 +16°C° 0 mm 7 m/S 761 mmHg 49%
    16:00 +15°C° 0 mm 6 m/S 761 mmHg 51%
    17:00 +15°C° 0 mm 6 m/S 762 mmHg 52%
    18:00 +14°C° 0 mm 5 m/S 763 mmHg 57%
    19:00 +13°C° 0 mm 4 m/S 763 mmHg 62%
    20:00 +12°C° 0 mm 4 m/S 764 mmHg 66%
    21:00 +12°C° 0 mm 3 m/S 765 mmHg 68%
    22:00 +11°C° 0 mm 3 m/S 765 mmHg 70%
    23:00 +12°C° 0 mm 2 m/S 765 mmHg 71%

    26 April, Freitag

    Zeit Temperatur Niederschläge Wind Luftdruck Luftfeuchtigkeit
    00:00 +12°C° 0 mm 2 m/S 765 mmHg 73%
    01:00 +12°C° 0 mm 2 m/S 765 mmHg 74%
    02:00 +10°C° 0 mm 2 m/S 765 mmHg 76%
    03:00 +10°C° 0 mm 3 m/S 766 mmHg 77%
    04:00 +10°C° 0 mm 3 m/S 766 mmHg 78%
    05:00 +9°C° 0 mm 3 m/S 766 mmHg 80%
    06:00 +11°C° 0 mm 3 m/S 766 mmHg 72%
    07:00 +12°C° 0 mm 4 m/S 767 mmHg 65%
    08:00 +14°C° 0 mm 4 m/S 767 mmHg 58%
    09:00 +15°C° 0 mm 4 m/S 767 mmHg 52%
    10:00 +18°C° 0 mm 4 m/S 767 mmHg 46%
    11:00 +19°C° 0 mm 4 m/S 767 mmHg 41%
    12:00 +20°C° 0 mm 4 m/S 767 mmHg 39%
    13:00 +21°C° 0 mm 5 m/S 766 mmHg 38%
    14:00 +21°C° 0 mm 5 m/S 766 mmHg 37%
    15:00 +20°C° 0 mm 6 m/S 766 mmHg 42%
    16:00 +19°C° 0 mm 6 m/S 766 mmHg 46%
    17:00 +18°C° 0 mm 7 m/S 766 mmHg 51%
    18:00 +16°C° 0 mm 6 m/S 766 mmHg 56%
    19:00 +14°C° 0 mm 6 m/S 766 mmHg 61%
    20:00 +13°C° 0 mm 6 m/S 767 mmHg 65%
    21:00 +12°C° 0 mm 5 m/S 767 mmHg 67%
    22:00 +12°C° 0 mm 5 m/S 766 mmHg 68%
    23:00 +12°C° 0 mm 5 m/S 766 mmHg 69%

    27 April, Samstag

    Zeit Temperatur Niederschläge Wind Luftdruck Luftfeuchtigkeit
    00:00 +11°C° 0 mm 4 m/S 766 mmHg 70%
    01:00 +11°C° 0 mm 4 m/S 765 mmHg 71%
    02:00 +11°C° 0 mm 4 m/S 765 mmHg 73%
    03:00 +11°C° 0 mm 4 m/S 765 mmHg 71%
    04:00 +11°C° 0 mm 4 m/S 764 mmHg 70%
    05:00 +11°C° 0 mm 4 m/S 764 mmHg 68%
    06:00 +13°C° 0 mm 4 m/S 765 mmHg 60%
    07:00 +15°C° 0 mm 5 m/S 765 mmHg 52%
    08:00 +19°C° 0 mm 5 m/S 765 mmHg 43%
    09:00 +21°C° 0 mm 5 m/S 764 mmHg 38%
    10:00 +23°C° 0 mm 5 m/S 764 mmHg 33%
    11:00 +26°C° 0 mm 5 m/S 764 mmHg 29%
    12:00 +27°C° 0 mm 5 m/S 764 mmHg 28%
    13:00 +28°C° 0 mm 5 m/S 763 mmHg 27%
    14:00 +29°C° 0 mm 5 m/S 763 mmHg 27%
    15:00 +28°C° 0 mm 4 m/S 762 mmHg 29%
    16:00 +28°C° 0 mm 4 m/S 762 mmHg 32%
    17:00 +27°C° 0 mm 4 m/S 762 mmHg 34%
    18:00 +25°C° 0 mm 4 m/S 762 mmHg 39%
    19:00 +22°C° 0 mm 4 m/S 762 mmHg 44%
    20:00 +21°C° 0 mm 4 m/S 762 mmHg 49%
    21:00 +20°C° 0 mm 4 m/S 762 mmHg 50%
    22:00 +19°C° 0 mm 4 m/S 762 mmHg 52%
    23:00 +18°C° 0 mm 4 m/S 762 mmHg 53%
    Mehr zeigen